Regional Weather Roundup
Issued by NWS

Home | Current Version | Previous Version | Graphics & Text | Print | Product List | Glossary On
Versions: 1 2 3 4 5 6 7 8 9 10 11 12 13 14 15 16 17 18 19 20 21 22 23 24 25 26 27 28 29 30 31 32 33 34 35 36 37 38 39 40 41 42 43 44 45 46 47 48 49 50
000
ASUS45 KSLC 311210
RWRUT

UTAH REGIONAL WEATHER ROUNDUP
NATIONAL WEATHER SERVICE SALT LAKE CITY UT
500 AM MST SAT JAN 31 2015

UTZ001>011-023>025-311300-

NORTHERN UTAH

CITY           SKY/WX    TMP DP  RH WIND       PRES   REMARKS
BRIGHAM CITY   CLOUDY    37  28  72 NW7       29.97S WCI  31
HILL AFB       MOCLDY    38  29  70 E8        29.95S WCI  33
LOGAN          CLEAR     32  29  88 NE5       30.02R WCI  27
OGDEN          MOCLDY    35  31  85 NW6       29.95S WCI  30
PROVO AIRPORT  CLOUDY    36  34  93 NW5       29.95R WCI  32
SALT LAKE CITY MOCLDY    37  33  85 N3        29.96S
VERNAL         LGT RAIN  35  35 100 CALM      29.92S FOG
WENDOVER       CLOUDY    41  25  52 CALM      29.99S
HEBER CITY     CLOUDY    34  32  93 CALM      29.96R
WEST JORDAN    CLOUDY    37  36  93 NW6       29.96S WCI  33

$$

UTZ012>022-026-027-311300-

SOUTHERN/CENTRAL UTAH

CITY           SKY/WX    TMP DP  RH WIND       PRES   REMARKS
BLANDING       CLOUDY    32  32 100 CALM      29.96S
BRYCE CANYON   CLOUDY    30  28  92 N5        29.90R WCI  25
CEDAR CITY     FLURRIES  35  34  96 CALM      29.90R
DELTA          CLOUDY    37  37  99 N12       29.94R WCI  29
HANKSVILLE     CLOUDY    37  37 100 CALM      29.93S
MILFORD        LGT RAIN  37  35  92 N9        29.92R WCI  30
MOAB/CYNLANDS  LGT RAIN  38  36  92 CALM      29.89S
PRICE          FOG       34  33  96 CALM      29.89S VSB 1/4
ST GEORGE      CLOUDY    46  43  87 SE3       29.89S
KANAB          CLOUDY    36  36 100 NE6       29.92S WCI  31

$$

REGIONAL REPORTS     COLORADO/ARIZONA

CITY           SKY/WX    TMP DP  RH WIND       PRES   REMARKS
CRAIG, CO      LGT SNOW  33  32  96 CALM      29.90S FOG
GRAND JUNCTION LGT RAIN  38  38 100 CALM      29.89S VSB 1/2
RIFLE          FOG       36  35  96 CALM      29.89S VSB 1/2
MONTROSE       CLOUDY    36  36 100 W3        29.90S FOG
CORTEZ         CLOUDY    34  33  96 NE5       29.88F WCI  30
PAGE, AZ       NOT AVBL
GRAND CANYON   LGT RAIN  37  36  96 CALM      29.87S
KINGMAN        CLOUDY    45  44  97 NE6       29.84S
FLAGSTAFF      CLOUDY    35  34  96 CALM      29.86S

$$

REGIONAL REPORTS    NEVADA/IDAHO/WYOMING

CITY           SKY/WX    TMP DP  RH WIND       PRES   REMARKS
LAS VEGAS, NV  CLOUDY    49  46  90 S7        29.83S
ELY            CLOUDY    32  31  96 N10       29.97S WCI  24
ELKO           CLEAR     26  23  88 NW3       30.06R
POCATELLO, ID  CLOUDY    32  31  96 W9        30.10R WCI  24
BURLEY         CLOUDY    34  30  85 NW6       30.10R WCI  29
EVANSTON, WY   CLOUDY    30  26  85 N3        29.98S
ROCK SPRINGS   CLOUDY    27  26  96 SW6       29.95F WCI  20
KEMMERER       CLOUDY    28  27  93 N3        29.98F

$$



USA.gov is the U.S. government's official web portal to all federal, state and local government web resources and services.